User: anonymous   Login
Location: Unspecified
(0.0000°N, 0.0000°E)
Time: 17:25:27
(UTC+00:00)
Language:

PERSEUS M2 - Orbit

View from above orbital plane
View from above orbital plane
View from above satellite
View from above satellite

Ground track
Ground track

The orbit data is extracted from the following two-line orbital elements,

1 40037U 14033AD  21336.73797247  .00000350  00000-0  45460-4 0  9997
2 40037  97.8921 255.1621 0014574   9.2187 350.9293 14.86769299403898
Epoch (UTC): 02 December 2021 17:42:40
Eccentricity: 0.0014574
inclination: 97.8921°
perigee height: 598 km
apogee height: 618 km
right ascension of ascending node: 255.1621°
argument of perigee: 9.2187°
revolutions per day: 14.86769299
mean anomaly at epoch: 350.9293°
orbit number at epoch: 40389

The dashed part of the orbit path shows where the satellite is in the earth's shadow,  

DLR